Winner, SD

2:47 PM CDT on August 24, 2016 (GMT -0500)
Winner

Weather History for KICR - August, 2013

Change the Weather History Date:

Friday, August 16, 2013

  Actual Average Record
Temperature  
Mean Temperature 66 °F 75 °F  
Max Temperature 79 °F 88 °F 91 °F (2016)
Min Temperature 53 °F 62 °F 50 °F (2012)
Degree Days  
Heating Degree Days 0 0  
Month to date heating degree days 0 0  
Since 1 June heating degree days 60 59  
Since 1 July heating degree days 7 5  
Cooling Degree Days 1 10  
Month to date cooling degree days 80 174  
Year to date cooling degree days 539 680  
Since 1 June cooling degree days 500 650  
Growing Degree Days 16 (Base 50)    
Moisture  
Dew Point 57 °F    
Average Humidity 76    
Maximum Humidity 100    
Minimum Humidity 52    
Precipitation  
Precipitation 0.01 in 0.08 in 0.04 in (2010)
Month to date precipitation 2.40 1.37  
Year to date precipitation 15.90 16.05  
Sea Level Pressure  
Sea Level Pressure 30.10 in    
Wind  
Wind Speed 8 mph (SE)    
Max Wind Speed 17 mph    
Max Gust Speed 23 mph    
Visibility 6 miles    
Events Fog , Rain    
T = Trace of Precipitation, MM = Missing Value Source: NWS Daily Summary

Daily Weather History Graph

Daily Weather History Graph

Search for Another Location

Airport or City:

Trip Planner

Search our weather history database for the weather conditions in past years. The results will help you decide how hot, cold, wet, or windy it might be!

Date:

Astronomy

Aug. 16, 2013 Rise Set
Actual Time 6:45 AM CDT 8:40 PM CDT
Civil Twilight 6:15 AM CDT 9:11 PM CDT
Nautical Twilight 5:37 AM CDT 9:48 PM CDT
Astronomical Twilight 4:56 AM CDT 10:29 PM CDT
Moon 5:04 PM CDT (8/16) 1:46 AM CDT (8/16)
Length of Visible Light 14h 56m
Length of Day
13h 54m
Waxing Gibbous, 75% of the Moon is Illuminated
Aug 16
Waxing Gibbous
Aug 20
Full
Aug 28
Last Quarter
Sep 5
New
Sep 12
First Quarter

Hourly Weather History & Observations

Time (CDT) Temp. Dew Point Humidity Pressure Visibility Wind Dir Wind Speed Gust Speed Precip Events Conditions
12:53 AM 57.9 °F 57.0 °F 97% 30.11 in 4.0 mi SE 4.6 mph - N/A   Clear
1:10 AM 57.2 °F 55.4 °F 94% 30.13 in 2.5 mi SSE 4.6 mph - N/A   Clear
1:19 AM 57.2 °F 57.2 °F 100% 30.13 in 3.0 mi SSE 4.6 mph - 0.00 in Rain Light Rain
1:51 AM 57.2 °F 55.4 °F 94% 30.13 in 2.5 mi SW 4.6 mph - 0.00 in   Clear
1:53 AM 57.9 °F 55.9 °F 93% 30.11 in 3.0 mi SW 4.6 mph - 0.00 in   Clear
2:23 AM 55.4 °F 55.4 °F 100% 30.13 in 2.0 mi Calm Calm - N/A   Clear
2:45 AM 57.2 °F 57.2 °F 100% 30.13 in 3.0 mi SSW 3.5 mph - N/A   Clear
2:53 AM 57.0 °F 57.0 °F 100% 30.11 in 3.0 mi Calm Calm - N/A   Scattered Clouds
3:34 AM 55.4 °F 53.6 °F 94% 30.12 in 2.0 mi ESE 4.6 mph - 0.00 in   Partly Cloudy
3:49 AM 55.4 °F 53.6 °F 94% 30.12 in 1.0 mi SE 4.6 mph - 0.00 in   Mist
3:53 AM 55.0 °F 54.0 °F 96% 30.10 in 0.5 mi SE 3.5 mph - 0.00 in Fog Fog
4:17 AM 55.4 °F 53.6 °F 94% 30.12 in 1.5 mi SE 5.8 mph - 0.00 in Rain Light Rain
4:29 AM 55.4 °F 53.6 °F 94% 30.12 in 2.0 mi SE 4.6 mph - 0.01 in   Mostly Cloudy
4:40 AM 53.6 °F 53.6 °F 100% 30.12 in 0.8 mi East 4.6 mph - 0.01 in   Mostly Cloudy
4:53 AM 54.0 °F 53.1 °F 97% 30.11 in 1.8 mi ESE 4.6 mph - 0.01 in   Mostly Cloudy
4:55 AM 53.6 °F 53.6 °F 100% 30.12 in 2.5 mi ESE 4.6 mph - N/A   Mostly Cloudy
5:03 AM 53.6 °F 53.6 °F 100% 30.12 in 3.0 mi East 4.6 mph - N/A   Mostly Cloudy
5:53 AM 57.9 °F 57.0 °F 97% 30.11 in 4.0 mi ESE 4.6 mph - 0.00 in   Overcast
6:53 AM 60.1 °F 57.9 °F 93% 30.11 in 4.0 mi SE 3.5 mph - N/A   Overcast
7:53 AM 60.1 °F 57.9 °F 93% 30.13 in 3.0 mi SE 6.9 mph - N/A   Overcast
8:53 AM 62.1 °F 60.1 °F 93% 30.13 in 4.0 mi ESE 6.9 mph - N/A   Overcast
9:51 AM 64.4 °F 60.8 °F 88% 30.14 in 7.0 mi ESE 6.9 mph - N/A   Overcast
9:53 AM 64.9 °F 61.0 °F 87% 30.13 in 8.0 mi ESE 8.1 mph - N/A   Overcast
10:53 AM 69.1 °F 57.9 °F 68% 30.12 in 10.0 mi SE 4.6 mph - N/A   Mostly Cloudy
11:26 AM 69.8 °F 57.2 °F 64% 30.14 in 10.0 mi ESE 5.8 mph - N/A   Scattered Clouds
11:53 AM 71.1 °F 57.9 °F 63% 30.12 in 10.0 mi SSE 4.6 mph - N/A   Scattered Clouds
12:07 PM 71.6 °F 57.2 °F 60% 30.13 in 10.0 mi Variable 4.6 mph - N/A   Mostly Cloudy
12:29 PM 71.6 °F 57.2 °F 60% 30.13 in 10.0 mi Variable 4.6 mph - N/A   Overcast
12:53 PM 73.9 °F 59.0 °F 59% 30.10 in 10.0 mi Variable 6.9 mph - N/A   Mostly Cloudy
1:53 PM 75.0 °F 59.0 °F 57% 30.08 in 10.0 mi SE 8.1 mph - N/A   Mostly Cloudy
2:53 PM 77.0 °F 60.1 °F 56% 30.08 in 10.0 mi SE 11.5 mph 17.3 mph N/A   Scattered Clouds
3:53 PM 78.1 °F 59.0 °F 52% 30.07 in 10.0 mi ESE 12.7 mph 17.3 mph N/A   Partly Cloudy
4:53 PM 79.0 °F 59.0 °F 50% 30.06 in 10.0 mi SSE 5.8 mph - N/A   Scattered Clouds
5:53 PM 78.1 °F 60.1 °F 54% 30.06 in 10.0 mi SE 9.2 mph - N/A   Clear
6:53 PM 77.0 °F 61.0 °F 58% 30.04 in 10.0 mi SE 12.7 mph - N/A   Clear
7:53 PM 73.9 °F 62.1 °F 66% 30.05 in 10.0 mi SE 9.2 mph - N/A   Clear
8:53 PM 68.0 °F 61.0 °F 78% 30.05 in 10.0 mi SE 9.2 mph - N/A   Clear
9:53 PM 64.9 °F 60.1 °F 84% 30.06 in 10.0 mi SE 9.2 mph - N/A   Clear
10:53 PM 64.9 °F 60.1 °F 84% 30.06 in 10.0 mi SE 11.5 mph - N/A   Clear
11:53 PM 64.9 °F 61.0 °F 87% 30.06 in 10.0 mi South 13.8 mph - N/A   Clear